• en France
  • Liste des pays
  • À 7 jours
  • Température de l'eau
  • Carte satellitaire
  • Carte météo
  • Widgets météo
  • user-avatar
    Se connecter

    Météo par heure à Santa Rita

    Ce jour, 18 Décembre, Lundi

    Heure Température Précipitation Vent Pression Humidité
    00:00 +26°C° 0 mm 2 m/s 748 mmHg 75%
    01:00 +25°C° 0 mm 2 m/s 748 mmHg 76%
    02:00 +25°C° 0 mm 2 m/s 748 mmHg 77%
    03:00 +25°C° 0 mm 1 m/s 748 mmHg 78%
    04:00 +25°C° 0 mm 1 m/s 748 mmHg 79%
    05:00 +25°C° 0 mm 2 m/s 748 mmHg 78%
    06:00 +26°C° 0 mm 2 m/s 749 mmHg 77%
    07:00 +27°C° 0 mm 2 m/s 749 mmHg 75%
    08:00 +28°C° 0 mm 2 m/s 749 mmHg 70%
    09:00 +30°C° 0 mm 3 m/s 749 mmHg 64%
    10:00 +33°C° 0 mm 3 m/s 749 mmHg 58%
    11:00 +34°C° 0 mm 3 m/s 748 mmHg 55%
    12:00 +35°C° 0 mm 3 m/s 748 mmHg 52%
    13:00 +35°C° 0 mm 3 m/s 747 mmHg 49%
    14:00 +35°C° 0 mm 3 m/s 747 mmHg 51%
    15:00 +35°C° 0 mm 3 m/s 746 mmHg 52%
    16:00 +35°C° 0 mm 2 m/s 746 mmHg 54%
    17:00 +32°C° 0 mm 2 m/s 746 mmHg 57%
    18:00 +30°C° 0 mm 2 m/s 747 mmHg 60%
    19:00 +28°C° 0 mm 2 m/s 747 mmHg 63%
    20:00 +28°C° 0 mm 2 m/s 747 mmHg 63%
    21:00 +28°C° 0 mm 2 m/s 748 mmHg 63%
    22:00 +27°C° 0 mm 2 m/s 748 mmHg 64%
    23:00 +27°C° 0 mm 2 m/s 748 mmHg 65%

    Demain, 19 Décembre, Mardi

    Heure Température Précipitation Vent Pression Humidité
    00:00 +26°C° 0 mm 2 m/s 748 mmHg 67%
    01:00 +26°C° 0 mm 2 m/s 748 mmHg 68%
    02:00 +26°C° 0 mm 2 m/s 748 mmHg 70%
    03:00 +25°C° 0 mm 2 m/s 748 mmHg 72%
    04:00 +25°C° 0 mm 2 m/s 748 mmHg 73%
    05:00 +26°C° 0 mm 2 m/s 748 mmHg 73%
    06:00 +26°C° 0 mm 3 m/s 749 mmHg 73%
    07:00 +26°C° 0 mm 3 m/s 749 mmHg 73%
    08:00 +28°C° 0 mm 3 m/s 749 mmHg 68%
    09:00 +30°C° 0 mm 3 m/s 749 mmHg 63%
    10:00 +33°C° 0 mm 3 m/s 749 mmHg 57%
    11:00 +34°C° 0 mm 3 m/s 749 mmHg 54%
    12:00 +35°C° 0 mm 3 m/s 748 mmHg 50%
    13:00 +36°C° 0 mm 3 m/s 747 mmHg 47%
    14:00 +36°C° 0 mm 3 m/s 747 mmHg 49%
    15:00 +35°C° 0 mm 3 m/s 746 mmHg 50%
    16:00 +35°C° 0 mm 2 m/s 745 mmHg 52%
    17:00 +32°C° 0 mm 2 m/s 746 mmHg 56%
    18:00 +30°C° 0 mm 2 m/s 746 mmHg 59%
    19:00 +29°C° 0 mm 2 m/s 746 mmHg 63%
    20:00 +28°C° 0 mm 2 m/s 747 mmHg 63%
    21:00 +28°C° 0 mm 2 m/s 747 mmHg 64%
    22:00 +27°C° 0 mm 2 m/s 748 mmHg 65%
    23:00 +27°C° 0 mm 2 m/s 747 mmHg 67%

    Après-demain, 20 Décembre, Mercredi

    Heure Température Précipitation Vent Pression Humidité
    00:00 +26°C° 0 mm 2 m/s 747 mmHg 69%
    01:00 +26°C° 0 mm 2 m/s 747 mmHg 71%
    02:00 +26°C° 0 mm 2 m/s 747 mmHg 71%
    03:00 +25°C° 0 mm 2 m/s 747 mmHg 71%
    04:00 +25°C° 0 mm 2 m/s 747 mmHg 70%
    05:00 +25°C° 0 mm 3 m/s 747 mmHg 71%
    06:00 +26°C° 0 mm 3 m/s 748 mmHg 72%
    07:00 +26°C° 0 mm 3 m/s 748 mmHg 73%
    08:00 +28°C° 0 mm 3 m/s 748 mmHg 67%
    09:00 +30°C° 0 mm 3 m/s 749 mmHg 61%
    10:00 +33°C° 0 mm 3 m/s 749 mmHg 55%
    11:00 +34°C° 0 mm 3 m/s 748 mmHg 51%
    12:00 +35°C° 0 mm 3 m/s 747 mmHg 48%
    13:00 +36°C° 0 mm 3 m/s 746 mmHg 44%
    14:00 +36°C° 0 mm 2 m/s 746 mmHg 46%
    15:00 +35°C° 0 mm 2 m/s 745 mmHg 48%
    16:00 +35°C° 0 mm 2 m/s 745 mmHg 49%
    17:00 +32°C° 0 mm 2 m/s 745 mmHg 53%
    18:00 +30°C° 0 mm 2 m/s 746 mmHg 57%
    19:00 +29°C° 0 mm 2 m/s 746 mmHg 61%
    20:00 +28°C° 0 mm 2 m/s 746 mmHg 62%
    21:00 +28°C° 0 mm 2 m/s 747 mmHg 64%
    22:00 +27°C° 0 mm 2 m/s 747 mmHg 65%
    23:00 +27°C° 0 mm 2 m/s 747 mmHg 66%

    21 Décembre, Jeudi

    Heure Température Précipitation Vent Pression Humidité
    00:00 +27°C° 0 mm 2 m/s 747 mmHg 68%
    01:00 +26°C° 0 mm 2 m/s 746 mmHg 69%
    02:00 +26°C° 0 mm 2 m/s 746 mmHg 70%
    03:00 +26°C° 0 mm 2 m/s 746 mmHg 71%
    04:00 +25°C° 0 mm 2 m/s 746 mmHg 73%
    05:00 +26°C° 0 mm 2 m/s 747 mmHg 73%
    06:00 +26°C° 0 mm 2 m/s 747 mmHg 74%
    07:00 +26°C° 0 mm 3 m/s 748 mmHg 74%
    08:00 +28°C° 0 mm 3 m/s 748 mmHg 68%
    09:00 +30°C° 0 mm 3 m/s 748 mmHg 62%
    10:00 +33°C° 0 mm 3 m/s 749 mmHg 57%
    11:00 +34°C° 0 mm 3 m/s 748 mmHg 53%
    12:00 +35°C° 0 mm 3 m/s 747 mmHg 49%
    13:00 +36°C° 0 mm 3 m/s 746 mmHg 45%
    14:00 +36°C° 0 mm 3 m/s 745 mmHg 46%
    15:00 +35°C° 0 mm 2 m/s 745 mmHg 48%
    16:00 +35°C° 0 mm 2 m/s 744 mmHg 50%
    17:00 +32°C° 0 mm 2 m/s 745 mmHg 54%
    18:00 +31°C° 0 mm 2 m/s 746 mmHg 58%
    19:00 +29°C° 0 mm 2 m/s 746 mmHg 62%
    20:00 +28°C° 0 mm 2 m/s 746 mmHg 63%
    21:00 +28°C° 0 mm 2 m/s 747 mmHg 64%
    22:00 +28°C° 0 mm 2 m/s 747 mmHg 66%
    23:00 +27°C° 0 mm 2 m/s 747 mmHg 67%

    22 Décembre, Vendredi

    Heure Température Précipitation Vent Pression Humidité
    00:00 +27°C° 0 mm 2 m/s 747 mmHg 68%
    01:00 +26°C° 0 mm 2 m/s 746 mmHg 69%
    02:00 +26°C° 0 mm 2 m/s 746 mmHg 70%
    03:00 +26°C° 0 mm 2 m/s 746 mmHg 71%
    04:00 +25°C° 0 mm 2 m/s 746 mmHg 72%
    05:00 +26°C° 0 mm 2 m/s 747 mmHg 72%
    06:00 +26°C° 0 mm 2 m/s 748 mmHg 72%
    07:00 +27°C° 0 mm 3 m/s 748 mmHg 73%
    08:00 +29°C° 0 mm 3 m/s 748 mmHg 66%
    09:00 +31°C° 0 mm 3 m/s 749 mmHg 60%
    10:00 +33°C° 0 mm 3 m/s 749 mmHg 54%
    11:00 +34°C° 0 mm 3 m/s 748 mmHg 51%
    12:00 +35°C° 0 mm 3 m/s 747 mmHg 48%
    13:00 +36°C° 0 mm 3 m/s 746 mmHg 45%
    14:00 +36°C° 0 mm 3 m/s 745 mmHg 46%
    15:00 +36°C° 0 mm 3 m/s 745 mmHg 48%
    16:00 +36°C° 0 mm 3 m/s 745 mmHg 49%
    17:00 +34°C° 0 mm 3 m/s 745 mmHg 53%
    18:00 +31°C° 0 mm 2 m/s 746 mmHg 57%
    19:00 +30°C° 0 mm 2 m/s 746 mmHg 61%
    20:00 +29°C° 0 mm 2 m/s 747 mmHg 62%
    21:00 +29°C° 0 mm 2 m/s 747 mmHg 63%
    22:00 +28°C° 0 mm 2 m/s 747 mmHg 63%
    23:00 +28°C° 0 mm 3 m/s 747 mmHg 64%

    23 Décembre, Samedi

    Heure Température Précipitation Vent Pression Humidité
    00:00 +28°C° 0 mm 3 m/s 747 mmHg 65%
    01:00 +27°C° 0 mm 3 m/s 747 mmHg 66%
    02:00 +27°C° 0 mm 3 m/s 747 mmHg 67%
    03:00 +27°C° 0 mm 3 m/s 747 mmHg 67%
    04:00 +26°C° 0 mm 4 m/s 747 mmHg 68%
    05:00 +27°C° 0 mm 4 m/s 747 mmHg 69%
    06:00 +27°C° 0 mm 4 m/s 748 mmHg 71%
    07:00 +27°C° 0 mm 4 m/s 748 mmHg 72%
    08:00 +29°C° 0 mm 4 m/s 748 mmHg 66%
    09:00 +30°C° 0 mm 4 m/s 748 mmHg 60%
    10:00 +33°C° 0 mm 4 m/s 748 mmHg 55%
    11:00 +34°C° 0 mm 4 m/s 747 mmHg 51%
    12:00 +35°C° 0 mm 4 m/s 746 mmHg 47%
    13:00 +36°C° 0 mm 3 m/s 746 mmHg 44%
    14:00 +36°C° 0 mm 3 m/s 745 mmHg 46%
    15:00 +36°C° 0 mm 3 m/s 745 mmHg 47%
    16:00 +36°C° 0 mm 3 m/s 744 mmHg 49%
    17:00 +34°C° 0 mm 3 m/s 745 mmHg 53%
    18:00 +33°C° 0 mm 3 m/s 745 mmHg 56%
    19:00 +30°C° 0 mm 2 m/s 746 mmHg 60%
    20:00 +30°C° 0 mm 2 m/s 746 mmHg 60%
    21:00 +29°C° 0 mm 2 m/s 746 mmHg 61%
    22:00 +29°C° 0 mm 3 m/s 747 mmHg 61%
    23:00 +28°C° 0 mm 3 m/s 747 mmHg 62%
    Voir plus